Voltar ao catálogo

KUIPER-00251

AtivoComunicaçõesLEO
NORAD 67156·PAYLOAD·🇺🇸 United States

Lançado Dec 15, 2025 de Cape Canaveral Space Force Station

Loading…

Próximas Passagens (próximas 24 horas)

TLE

AtualizadoSource: CelesTrak SupGP

Época: Sep 14, 2026, 20:04 UTC

1 67156C 25301Z   26257.83623843  .00001373  00000+0  17968-3 0  2579
2 67156  51.8998 301.7614 0000412  65.3407 211.0027 14.79929031    10

Acompanhe KUIPER-00251 em tempo real com AllMySat

Download on the App Store